Weather reports worldwide

Advertisment
Chalons-Vatry Airport, France (7166): temperature & dewpoint: 08.12.2019 04:00:00 - 14.12.2019 04:00:00 (CET)Chalons-Vatry Airport, France (7166): wind speed & gusts: 08.12.2019 04:00:00 - 14.12.2019 04:00:00 (CET)Chalons-Vatry Airport, France (7166): wind direction: 08.12.2019 04:00:00 - 14.12.2019 04:00:00 (CET)Chalons-Vatry Airport, France (7166): reduced air pressure: 08.12.2019 04:00:00 - 14.12.2019 04:00:00 (CET)Chalons-Vatry Airport, France (7166): visibility: 08.12.2019 04:00:00 - 14.12.2019 04:00:00 (CET)Chalons-Vatry Airport, France (7166): precipitation: 08.12.2019 04:00:00 - 14.12.2019 04:00:00 (CET)
Date & Time tt [°C] td [°C] ff [km/h] ff [kn] fx [km/h] fx [kn] dd ppp [hPa] vv [km] rr [mm]
14.12.2019 04:00:00 9,0 7,0 37 20 - - WSW - 10 -
14.12.2019 03:00:00 8,8 8,7 37 20 60 33 SW 987,5 9 1,2
14.12.2019 02:00:00 6,6 6,6 35 19 56 31 SSW 988,1 13 0,8
14.12.2019 01:00:00 5,5 5,5 34 18 50 27 S 989,3 3,9 1,4
14.12.2019 00:00:00 5,6 5,2 30 16 41 22 SSW 991,6 8 0,4
13.12.2019 23:00:00 5,5 4,3 26 14 39 21 SSW 991,6 10 0,0
13.12.2019 22:00:00 4,8 3,5 25 14 41 22 SSW 993,1 41 0,0
13.12.2019 21:00:00 4,6 2,9 24 13 40 22 SW 993,7 10 0,0
13.12.2019 20:00:00 4,3 2,8 29 16 38 21 SW 993,7 39 0,0
13.12.2019 19:00:00 5,0 2,0 29 16 48 26 WSW 993,2 10 0,0
13.12.2019 18:00:00 5,4 2,0 28 15 39 21 WSW 992,4 10 0,0
13.12.2019 17:00:00 6,7 2,6 31 17 62 34 W 991,1 37 0,0
13.12.2019 16:00:00 6,8 2,9 37 20 65 35 W 989,3 10 0,0
13.12.2019 15:00:00 7,8 3,3 46 25 82 44 W 987,6 25 0,0
13.12.2019 14:00:00 7,8 4,2 48 26 73 40 W 986,5 10 0,0
13.12.2019 13:00:00 6,1 4,1 45 24 66 36 WSW 985,7 12 0,2
13.12.2019 12:00:00 5,4 4,0 39 21 61 33 W 985,0 10 0,6
13.12.2019 11:00:00 5,6 3,8 46 25 66 36 WSW 983,9 10 0,0
13.12.2019 10:00:00 5,8 4,1 41 22 64 35 WSW 982,2 10 0,0
13.12.2019 09:00:00 5,7 4,0 39 21 82 45 WSW 980,9 10 0,0
13.12.2019 08:00:00 5,9 4,2 37 20 54 29 WSW 979,4 17 0,0
13.12.2019 07:00:00 6,3 4,3 34 18 69 37 W 978,2 10 0,0
13.12.2019 06:00:00 7,3 4,8 39 21 73 39 W 976,4 10 0,2
13.12.2019 05:00:00 7,8 6,3 26 14 41 22 SW 976,3 58 1,7
13.12.2019 04:00:00 7,1 7,0 31 17 51 28 S 978,3 5 3,0
13.12.2019 03:00:00 7,0 6,9 34 18 52 28 S 979,9 5 2,6
13.12.2019 02:00:00 7,0 6,6 31 17 48 26 SSW 981,6 10 0,0
13.12.2019 01:00:00 6,8 6,7 31 17 42 23 SSW 983,7 10 0,0
13.12.2019 00:00:00 6,0 6,0 26 14 46 25 SSW 985,0 10 0,2
12.12.2019 23:00:00 4,8 4,7 35 19 63 34 SSW 985,8 15 0,6
12.12.2019 22:00:00 4,0 3,6 44 24 61 33 S 986,8 6 0,6
12.12.2019 21:00:00 4,0 3,1 42 23 63 34 S 989,0 6 2,6
12.12.2019 20:00:00 4,4 2,9 37 20 56 30 S 991,0 10 1,0
12.12.2019 19:00:00 4,6 2,9 39 21 56 30 SSE 992,6 10 0,0
12.12.2019 18:00:00 4,6 2,8 41 22 58 32 SSE 993,9 10 0,0
12.12.2019 17:00:00 4,4 3,1 37 20 50 27 SSE 995,7 10 0,2
12.12.2019 16:00:00 4,1 3,4 37 20 48 26 SSE 997,7 9 0,4
12.12.2019 15:00:00 4,5 3,3 31 17 51 28 S 999,8 10 0,0
12.12.2019 14:00:00 4,4 2,7 33 18 45 24 S 1001,3 36 0,0
12.12.2019 13:00:00 4,5 3,0 32 17 46 25 S 1003,2 52 0,0
12.12.2019 12:00:00 3,7 2,4 34 18 47 26 SSW 1005,0 10 0,0
12.12.2019 11:00:00 3,1 2,4 28 15 42 23 SSW 1006,5 36 0,0
12.12.2019 10:00:00 2,8 2,1 27 14 41 22 SSW 1007,1 32 0,0
12.12.2019 09:00:00 2,9 2,3 22 12 34 18 SW 1007,3 10 0,0
12.12.2019 08:00:00 3,0 2,1 22 12 39 21 WSW 1007,7 29 0,0
12.12.2019 07:00:00 3,2 2,5 26 14 38 21 WSW 1007,6 10 0,0
12.12.2019 06:00:00 3,5 2,8 24 13 37 20 WSW 1007,3 10 0,0
12.12.2019 05:00:00 3,6 3,0 25 14 36 20 WSW 1007,1 30 0,0
12.12.2019 04:00:00 3,6 3,3 24 13 34 18 WSW 1006,8 10 0,0
12.12.2019 03:00:00 3,6 3,5 22 12 34 19 WSW 1006,8 10 0,2
12.12.2019 02:00:00 4,0 3,9 19 11 31 17 WSW 1006,5 25 0,0
12.12.2019 01:00:00 4,2 3,5 20 11 39 21 WSW 1006,4 60 0,2
12.12.2019 00:00:00 4,9 4,0 29 16 43 23 SW 1006,3 10 0,0
11.12.2019 23:00:00 4,4 4,0 21 11 28 15 S 1006,7 10 0,0
11.12.2019 22:00:00 4,8 4,2 22 12 33 18 S 1007,3 10 0,2
11.12.2019 21:00:00 4,1 3,8 22 12 32 17 S 1008,0 10 0,0
11.12.2019 20:00:00 4,1 3,8 24 13 32 17 SSW 1008,7 10 0,0
11.12.2019 19:00:00 4,5 4,2 18 10 30 16 SSW 1008,9 16 0,0
11.12.2019 18:00:00 5,3 5,0 18 10 29 16 SW 1009,1 10 0,0
11.12.2019 17:00:00 5,5 5,4 22 12 31 17 SW 1009,1 13 0,0
11.12.2019 16:00:00 6,0 6,0 21 11 33 18 SW 1009,2 10 0,0
11.12.2019 15:00:00 6,0 6,0 21 11 30 16 WSW 1009,1 10 0,0
11.12.2019 14:00:00 5,7 5,7 21 11 31 17 WSW 1009,2 10 0,2
11.12.2019 13:00:00 5,3 5,3 22 12 31 17 SW 1009,8 8 0,2
11.12.2019 12:00:00 5,0 5,0 22 12 32 17 SW 1010,5 6 0,6
11.12.2019 11:00:00 4,6 4,6 22 12 30 16 SSW 1011,0 10 1,2
11.12.2019 10:00:00 4,5 4,5 22 12 30 16 S 1011,5 6 1,4
11.12.2019 09:00:00 4,2 4,2 22 12 33 18 S 1011,8 5 1,6
11.12.2019 08:00:00 4,0 4,0 24 13 35 19 S 1012,2 6 0,2
11.12.2019 07:00:00 3,9 3,9 25 13 36 19 S 1012,7 4,0 0,0
11.12.2019 06:00:00 3,9 3,9 27 15 39 21 S 1013,2 2,7 0,8
11.12.2019 05:00:00 3,7 3,4 22 12 40 21 S 1014,1 7 0,8
11.12.2019 04:00:00 3,5 3,2 26 14 35 19 S 1014,8 5 1,2
11.12.2019 03:00:00 3,4 2,7 26 14 38 20 S 1015,7 6 1,8
11.12.2019 02:00:00 3,7 2,2 24 13 38 20 S 1016,6 10 0,6
11.12.2019 01:00:00 4,2 1,6 24 13 39 21 S 1017,5 40 0,0
11.12.2019 00:00:00 4,0 0,7 22 12 37 20 S 1018,3 46 0,0
10.12.2019 23:00:00 4,0 1,2 28 15 45 24 S 1019,2 10 0,0
10.12.2019 22:00:00 3,6 0,8 28 15 39 21 S 1019,9 10 0,0
10.12.2019 21:00:00 3,8 0,8 24 13 38 21 S 1021,3 10 0,0
10.12.2019 20:00:00 3,9 0,8 29 15 40 21 S 1021,8 43 0,0
10.12.2019 19:00:00 4,0 1,4 28 15 39 21 S 1022,5 10 0,0
10.12.2019 18:00:00 3,9 1,8 24 13 37 20 S 1023,2 40 0,0
10.12.2019 17:00:00 4,3 1,8 26 14 37 20 S 1024,1 36 0,0
10.12.2019 16:00:00 4,7 2,1 27 15 39 21 S 1025,0 33 0,0
10.12.2019 15:00:00 5,4 2,2 29 16 37 20 S 1025,7 10 0,0
10.12.2019 14:00:00 5,7 2,5 28 15 39 21 S 1026,7 19 0,0
10.12.2019 13:00:00 5,3 3,0 21 11 30 16 S 1027,9 20 0,0
10.12.2019 12:00:00 3,4 2,1 17 9 22 12 S 1029,0 19 0,0
10.12.2019 11:00:00 2,3 0,8 15 8 19 10 S 1029,7 10 0,0
10.12.2019 10:00:00 0,3 -0,1 13 7 16 8 SSW 1030,1 10 0,0
10.12.2019 09:00:00 -1,1 -1,4 11 6 13 7 S 1029,7 10 0,0
10.12.2019 08:00:00 -1,7 -2,0 11 6 16 9 SSW 1029,7 10 0,0
10.12.2019 07:00:00 -1,3 -1,7 11 6 14 7 SW 1029,5 20 0,0
10.12.2019 06:00:00 -0,9 -1,5 9 5 14 7 SW 1029,1 10 0,0
10.12.2019 05:00:00 0,0 -0,4 9 5 17 9 WSW 1028,9 31 0,0
10.12.2019 04:00:00 -0,3 -1,1 13 7 16 9 W 1029,0 29 0,0
10.12.2019 03:00:00 1,2 -0,1 13 7 20 11 WNW 1028,1 10 0,0
10.12.2019 02:00:00 1,1 0,1 18 10 21 11 W 1027,1 27 0,0
10.12.2019 01:00:00 2,3 0,8 16 9 23 12 WNW 1026,8 10 0,0
10.12.2019 00:00:00 3,3 1,3 16 9 31 17 NNW 1025,5 38 0,0
09.12.2019 23:00:00 3,9 1,6 24 13 41 22 NNW 1024,2 37 0,0
09.12.2019 22:00:00 5,1 2,3 29 16 44 24 NNW 1023,1 10 0,0
09.12.2019 21:00:00 5,5 2,1 31 17 54 29 NNW 1021,9 10 0,0
09.12.2019 20:00:00 5,8 2,3 36 20 57 31 NW 1020,0 44 0,0
09.12.2019 19:00:00 6,2 2,1 39 21 61 33 NW 1018,2 10 0,0
09.12.2019 18:00:00 6,1 2,0 39 21 68 37 NW 1016,2 10 0,0
09.12.2019 17:00:00 6,7 2,9 44 24 61 33 NW 1014,6 10 0,2
09.12.2019 16:00:00 7,4 4,4 37 20 60 33 NW 1012,4 10 0,0
09.12.2019 15:00:00 7,1 5,6 43 23 68 37 NW 1010,5 14 0,0
09.12.2019 14:00:00 7,4 5,5 39 21 62 33 NW 1008,3 15 0,0
09.12.2019 13:00:00 7,4 6,2 49 26 72 39 NW 1006,5 8 0,8
09.12.2019 12:00:00 7,4 6,8 37 20 53 29 W 1004,5 8 0,6
09.12.2019 11:00:00 6,8 6,4 35 19 52 28 WSW 1003,8 10 0,0
09.12.2019 10:00:00 6,5 5,8 32 18 53 28 WSW 1003,4 33 1,0
09.12.2019 09:00:00 6,5 6,1 34 18 50 27 WSW 1003,4 8 1,2
09.12.2019 08:00:00 6,6 6,0 38 21 61 33 SW 1003,0 9 0,4
09.12.2019 07:00:00 6,9 5,5 41 22 69 37 SW 1002,9 9 0,2
09.12.2019 06:00:00 6,9 5,4 45 24 64 34 SW 1003,2 20 0,2
09.12.2019 05:00:00 7,0 5,3 41 22 65 35 SW 1004,0 19 0,0
09.12.2019 04:00:00 7,1 5,1 42 23 76 41 SW 1004,6 10 0,0
09.12.2019 03:00:00 7,0 5,6 42 23 60 32 SW 1005,3 10 0,0
09.12.2019 02:00:00 6,8 5,4 35 19 61 33 SW 1006,1 10 0,0
09.12.2019 01:00:00 6,4 4,9 34 18 53 29 SW 1006,7 10 0,0
09.12.2019 00:00:00 7,5 5,5 34 18 55 30 SW 1007,1 10 0,0
08.12.2019 23:00:00 8,1 7,2 34 19 54 29 SW 1007,3 17 0,2
08.12.2019 22:00:00 7,9 7,1 32 17 48 26 SW 1007,8 9 0,0
08.12.2019 21:00:00 7,6 6,4 31 17 51 28 SW 1008,5 15 0,0
08.12.2019 20:00:00 7,6 6,5 34 18 54 29 WSW 1008,4 16 0,0
08.12.2019 19:00:00 7,8 6,7 25 13 38 21 WSW 1008,2 19 0,0
08.12.2019 18:00:00 8,4 7,8 22 12 33 18 SW 1007,9 10 0,0
08.12.2019 17:00:00 8,8 8,0 16 8 36 19 SW 1007,9 50 0,2
08.12.2019 16:00:00 8,9 8,3 25 14 54 29 W 1008,2 12 2,5
08.12.2019 15:00:00 11,1 11,1 37 20 56 31 SW 1007,4 4,6 0,2
08.12.2019 14:00:00 11,0 11,0 37 20 56 30 SW 1008,2 4,1 0,6
08.12.2019 13:00:00 10,6 10,6 37 20 53 29 SSW 1008,8 4,8 1,0
08.12.2019 12:00:00 10,5 10,3 37 20 67 36 SSW 1009,9 4,1 0,4
08.12.2019 11:00:00 10,4 9,9 41 22 53 29 SSW 1010,6 10 1,4
08.12.2019 10:00:00 10,2 9,7 36 19 56 30 SW 1011,2 14 0,0
08.12.2019 09:00:00 9,9 9,1 41 22 61 33 SW 1011,6 10 0,0
08.12.2019 08:00:00 9,7 8,5 42 23 58 31 SW 1012,0 60 0,0
08.12.2019 07:00:00 9,0 8,5 37 20 59 32 SSW 1012,1 10 0,0
08.12.2019 06:00:00 9,0 8,4 34 18 51 28 SSW 1012,6 10 0,0
08.12.2019 05:00:00 8,9 8,4 31 17 51 27 SSW 1013,6 10 0,0
08.12.2019 04:00:00 8,9 8,4 29 16 46 25 SSW 1014,6 10 0,0

tt = temperature
td = dewpoint
ff = wind speed
fx = gusts
dd = wind direction
ppp = reduced air pressure
vv = visibility
rr = precipitation

Next stations